User: anonymous   Login
Location: *
(44.9308°N, 123.0197°W)
Time: 11:31:43
(UTC+00:00)
Language:

Cosmos 1300 Rocket - Orbit

View from above orbital plane
View from above orbital plane
View from above satellite
View from above satellite

Ground track
Ground track

The orbit data is extracted from the following two-line orbital elements,

1 12786U 81082B   20184.85300317 +.00000065 +00000-0 +47538-5 0  9998
2 12786 082.4885 359.8994 0017484 180.0001 180.1218 14.84792779078679
Epoch (UTC): 02 July 2020 20:28:19
Eccentricity: 0.0017484
inclination: 82.4885°
perigee height: 602 km
apogee height: 626 km
right ascension of ascending node: 359.8994°
argument of perigee: 180.0001°
revolutions per day: 14.84792779
mean anomaly at epoch: 180.1218°
orbit number at epoch: 7867

The dashed part of the orbit path shows where the satellite is in the earth's shadow,  

DLR